Location: Fort Wayne
(41.1310°N, 85.1290°W)
Time: 02:40:41
(UTC-05:00)

Meteor 2-9 Rocket - Visible Passes

Search period start: 09 December 2016 00:00
Search period end: 19 December 2016 00:00
Orbit: 792 x 895 km, 81.3° (Epoch: 08 December)

Date Brightness Start Highest point End Pass type
(mag) Time Alt. Az. Time Alt. Az. Time Alt. Az.
09 Dec 5.1 18:04:51 10° NNE 18:09:08 23° ENE 18:13:21 10° ESE visible
09 Dec 5.2 19:47:01 10° NNW 19:52:05 42° W 19:57:02 10° SSW visible
10 Dec 6.4 07:12:24 10° SSE 07:17:20 30° E 07:22:14 10° NNE visible
10 Dec 5.2 17:50:56 10° NNE 17:54:56 21° ENE 17:58:53 10° ESE visible
10 Dec 5.0 19:32:50 10° NNW 19:38:00 48° W 19:43:04 10° SSW visible
11 Dec 6.6 06:58:34 10° SE 07:03:17 26° E 07:07:57 10° NE visible
11 Dec 5.4 17:37:04 10° NNE 17:40:45 18° ENE 17:44:21 10° ESE visible
11 Dec 4.8 19:18:39 10° NNW 19:23:54 55° W 19:29:04 10° S visible
12 Dec 6.8 06:44:48 10° SE 06:49:15 23° E 06:53:38 10° NE visible
12 Dec 4.5 19:04:29 10° NNW 19:09:49 63° W 19:15:02 10° S visible
13 Dec 6.9 06:31:05 10° SE 06:35:13 21° E 06:39:17 10° NE visible
13 Dec 4.3 18:50:21 10° NNW 18:55:42 72° W 19:00:59 10° S visible
14 Dec 7.0 06:17:26 10° SE 06:21:10 18° E 06:24:52 10° NE visible
14 Dec 4.1 18:36:12 10° NNW 18:41:36 82° W 18:46:53 10° S visible
15 Dec 7.1 06:03:52 10° ESE 06:07:09 16° E 06:10:24 10° NE visible
15 Dec 4.0 18:22:05 10° N 18:27:29 88° E 18:32:47 10° S visible
16 Dec 7.2 05:50:25 10° ESE 05:53:08 14° E 05:55:49 10° NE visible
16 Dec 4.0 18:07:58 10° N 18:13:21 77° E 18:18:38 10° SSE visible
16 Dec 7.2 19:53:28 10° WNW 19:55:18 12° W 19:57:09 10° WSW visible
17 Dec 7.3 05:37:12 10° ESE 05:39:07 12° E 05:41:01 10° ENE visible
17 Dec 4.3 07:15:18 10° S 07:21:04 86° W 07:26:42 10° N visible
17 Dec 4.0 17:53:53 10° N 17:59:13 68° E 18:04:30 10° SSE visible
17 Dec 7.1 19:38:43 10° NW 19:41:17 14° W 19:43:51 10° WSW visible
18 Dec 4.3 07:01:13 10° S 07:06:57 84° E 07:12:34 10° N visible
18 Dec 4.1 17:39:48 10° N 17:45:05 59° ENE 17:50:18 10° SSE visible
18 Dec 7.0 19:24:09 10° NW 19:27:15 16° W 19:30:20 10° WSW visible
